Voltar ao catálogo

FENGYUN 1C DEB

LostSSO
NORAD 36688·DEBRIS·🇨🇳 China

Lançado May 10, 1999 de Taiyuan Satellite Launch Center

Loading…

Próximas Passagens (próximas 24 horas)

TLE

ObsoletoSource: Space-Track

Época: Aug 23, 2011, 09:45 UTC

1 36688U 99025DZJ 11235.40675602  .00000598  00000-0  27257-3 0  9996
2 36688  99.0387 303.8870 0073858 226.0148 133.4943 14.24110055205144

Acompanhe FENGYUN 1C DEB em tempo real com AllMySat

Download on the App Store